Temp
63 63 63 63 63 63 63 63 63 63 63 63 63 63 62 62 62 65 66 77 76 81 82 83 84 84 86 75 74 72 59 56 60 59 61 71 71 77 82 80 81 82 74 77 80
63 63 62 62 62 63 62 62 63 63 63 63 62 62 62 62 59 63 77 82 82 82 81 78 78 79 71 74 74 67 60 63 72 64 62 63 68 75 72 73 75 75 77 78 78
62 62 62 62 62 62 62 62 62 62 62 62 62 62 62 61 59 72 81 81 82 81 81 80 81 78 74 76 73 71 61 70 69 69 69 67 69 77 74 69 72 69 70 74 76
62 62 61 62 62 62 62 62 62 62 61 61 62 62 63 57 62 80 81 81 81 80 80 80 78 71 72 74 78 65 68 74 71 72 71 65 69 74 78 76 78 76 75 75 73
61 61 61 61 61 61 62 61 61 61 61 61 62 63 60 62 70 84 81 81 79 80 79 77 74 71 70 75 73 66 69 75 76 74 73 73 69 71 74 83 83 80 78 76 75
60 60 60 60 61 61 61 60 60 60 61 62 62 63 59 64 85 83 81 78 80 77 77 77 76 79 75 78 73 74 73 72 75 72 72 71 71 74 72 81 82 80 75 78 75
60 60 60 60 60 60 60 60 60 60 61 62 63 66 65 71 87 82 81 78 80 79 76 81 81 76 76 67 75 74 66 70 72 71 70 68 67 64 73 80 78 80 77 77 75
59 59 58 59 60 59 59 58 59 61 62 63 64 61 63 85 83 85 80 80 81 77 78 83 83 76 75 75 74 68 63 56 66 69 68 66 58 66 70 74 72 76 77 78 76
58 58 58 58 58 58 57 58 61 62 64 65 58 59 66 84 80 87 85 83 82 78 81 94 80 70 74 68 61 66 51 55 58 70 65 63 56 64 71 70 71 71 73 74 74
58 58 58 58 57 57 56 58 64 62 64 69 72 62 71 77 80 86 85 87 80 77 78 72 67 62 62 59 51 54 56 60 59 64 65 60 58 63 67 69 68 71 73 72 75
59 58 58 58 57 56 53 62 66 64 63 70 70 73 80 80 84 83 87 81 76 70 62 66 60 56 64 64 67 69 60 60 65 68 63 59 58 62 63 68 65 67 68 69 70
58 58 58 57 57 56 52 62 70 74 67 75 79 78 84 80 74 81 83 74 69 64 64 62 57 69 72 73 70 67 62 59 64 68 66 60 59 61 62 65 66 68 68 69 70
58 58 57 56 56 54 61 71 80 76 63 75 79 79 80 81 77 76 80 73 69 63 65 59 68 76 74 70 67 62 60 59 59 65 64 63 56 60 63 65 67 70 70 70 69
58 58 56 54 61 60 68 76 78 75 56 66 70 80 81 81 74 87 83 78 70 67 68 64 75 75 71 70 68 54 70 68 63 56 51 63 47 55 60 60 63 66 70 69 69
58 57 55 54 51 62 77 75 81 73 45 75 74 87 80 74 76 77 86 76 68 71 65 66 72 69 68 71 75 66 74 68 65 58 58 55 50 55 61 58 62 65 69 71 71
57 56 55 54 49 61 68 72 72 56 49 69 78 75 72 72 74 80 77 77 78 72 68 70 76 72 72 77 75 77 71 67 62 54 45 53 53 51 54 64 62 66 70 72 71
56 55 54 60 63 67 70 68 54 48 70 69 69 72 70 66 72 75 71 63 62 54 54 67 71 72 76 68 72 68 55 46 45 45 45 50 51 53 62 68 69 65 69 73 72
54 53 53 57 55 65 67 61 45 64 65 74 72 72 68 70 68 72 66 62 65 61 56 54 55 70 75 69 64 59 56 46 40 40 45 53 47 55 65 66 68 70 70 72 72
53 55 54 59 60 63 62 48 52 61 71 70 71 64 62 72 72 68 65 63 67 66 56 55 59 74 76 74 72 60 55 59 48 44 46 48 55 64 65 64 66 66 70 72 73
50 54 60 71 67 64 56 50 58 70 73 69 60 66 60 65 66 62 62 69 71 73 66 58 54 64 74 74 72 66 66 54 48 40 39 45 49 51 59 59 66 67 65 67 73
54 60 70 74 71 59 50 51 64 74 76 68 66 62 60 65 66 64 66 70 75 72 70 56 55 61 67 62 61 62 56 51 49 45 40 40 48 58 58 60 66 63 65 66 72
51 54 73 78 59 54 52 60 64 73 76 71 72 67 64 66 63 63 64 68 74 70 62 60 53 50 58 68 72 64 58 54 48 44 44 46 51 62 60 62 65 65 68 67 70
48 53 71 74 54 53 58 65 70 71 72 70 70 72 68 63 59 65 68 74 76 70 63 60 50 45 52 58 65 62 64 54 51 46 44 44 51 60 62 62 66 66 64 62 65
48 49 59 62 62 60 57 61 63 75 73 74 73 70 65 60 61 61 66 74 75 72 69 65 49 49 45 52 56 58 64 61 56 47 45 49 54 55 60 62 62 64 63 62 62
49 51 55 50 57 60 57 62 64 64 71 70 70 71 66 55 58 59 66 67 71 70 66 60 50 50 55 61 63 60 63 64 57 55 52 56 54 56 57 58 61 62 64 65 63
49 51 54 53 57 59 56 56 63 67 67 68 67 72 69 61 64 60 64 58 61 63 62 58 51 50 53 62 61 59 64 63 63 62 58 55 53 58 58 60 59 62 63 65 65
54 57 54 51 53 54 57 61 63 65 70 75 74 69 67 70 71 70 70 66 67 63 59 58 53 48 45 56 58 51 59 61 61 61 60 53 55 57 57 60 60 61 63 65 65
MSLP
1017.84 1017.49 1017.17 1016.84 1016.53 1016.20 1015.93 1015.67 1015.43 1015.25 1015.05 1014.92 1014.79 1014.52 1014.17 1013.78 1013.09 1012.79 1012.10 1010.11 1009.92 1009.59 1009.52 1009.65 1009.91 1010.16 1010.62 1011.38 1011.93 1012.72 1013.60 1013.73 1013.53 1014.95 1014.62 1013.25 1012.54 1011.83 1010.79 1010.90 1011.37 1011.46 1012.96 1013.91 1015.09
1017.86 1017.53 1017.16 1016.82 1016.48 1016.15 1015.83 1015.55 1015.31 1015.12 1014.93 1014.73 1014.56 1014.29 1014.04 1013.80 1013.38 1012.00 1009.45 1009.40 1009.50 1009.46 1009.46 1009.52 1009.81 1009.90 1010.44 1010.77 1011.69 1012.27 1012.94 1012.71 1012.35 1013.27 1013.68 1013.46 1012.69 1011.85 1011.84 1012.04 1012.28 1012.71 1013.64 1014.51 1015.05
1017.86 1017.50 1017.12 1016.79 1016.41 1016.04 1015.70 1015.41 1015.16 1015.05 1014.84 1014.62 1014.36 1014.05 1013.84 1013.73 1012.95 1010.05 1008.31 1008.96 1009.34 1009.35 1009.39 1009.38 1009.34 1009.86 1009.87 1009.92 1011.31 1012.27 1012.75 1012.21 1012.58 1012.26 1012.80 1013.15 1012.25 1011.69 1011.44 1011.97 1011.56 1012.46 1013.77 1014.68 1015.26
1017.88 1017.50 1017.08 1016.73 1016.33 1015.92 1015.61 1015.30 1015.05 1014.87 1014.68 1014.47 1014.21 1013.91 1013.62 1013.48 1011.52 1008.59 1008.31 1008.77 1009.15 1009.27 1009.39 1009.17 1009.26 1009.28 1009.23 1009.83 1010.22 1011.32 1011.59 1011.84 1012.72 1012.81 1012.72 1013.13 1012.73 1011.27 1011.00 1010.84 1011.57 1012.14 1013.11 1014.14 1015.03
1017.83 1017.46 1017.04 1016.60 1016.20 1015.81 1015.49 1015.22 1014.88 1014.65 1014.48 1014.32 1014.09 1013.83 1013.43 1012.42 1009.82 1008.04 1008.40 1008.80 1009.16 1009.27 1009.21 1009.11 1009.23 1009.24 1009.21 1009.43 1009.84 1010.93 1011.48 1011.85 1012.17 1012.62 1012.63 1013.05 1012.42 1011.82 1011.46 1011.21 1012.34 1012.77 1013.38 1014.42 1014.72
1017.74 1017.31 1016.96 1016.56 1016.07 1015.63 1015.30 1015.01 1014.72 1014.42 1014.23 1014.06 1013.94 1013.81 1013.21 1010.81 1007.79 1007.78 1008.26 1008.82 1008.88 1008.98 1008.91 1009.18 1009.08 1008.81 1008.98 1009.03 1009.94 1010.96 1011.53 1012.15 1012.06 1012.61 1012.55 1012.58 1012.91 1012.34 1012.44 1012.18 1011.90 1013.22 1013.66 1013.73 1014.51
1017.67 1017.18 1016.80 1016.43 1015.95 1015.42 1015.00 1014.66 1014.40 1014.15 1013.95 1013.82 1013.75 1013.48 1012.40 1009.05 1007.46 1007.67 1007.97 1008.16 1008.08 1008.34 1008.73 1008.49 1008.57 1008.52 1008.67 1010.09 1010.89 1011.61 1012.63 1013.23 1013.12 1013.13 1013.02 1013.29 1013.21 1013.23 1012.66 1011.97 1012.15 1012.52 1013.22 1013.82 1014.40
1017.66 1017.17 1016.72 1016.26 1015.72 1015.10 1014.59 1014.15 1013.99 1013.77 1013.64 1013.55 1013.61 1013.23 1010.97 1007.62 1007.30 1007.71 1007.87 1007.83 1007.80 1007.99 1008.24 1007.89 1007.79 1008.04 1008.91 1010.37 1011.39 1011.78 1013.35 1014.80 1013.61 1013.55 1013.12 1013.35 1013.74 1014.05 1013.29 1012.46 1013.22 1013.02 1013.13 1013.45 1014.56
1017.66 1017.12 1016.60 1016.05 1015.47 1014.77 1014.02 1013.42 1013.09 1013.19 1013.26 1013.36 1013.44 1012.68 1009.87 1007.36 1007.14 1006.74 1007.21 1007.52 1007.38 1007.59 1007.49 1007.33 1007.52 1008.31 1009.31 1010.63 1011.73 1012.23 1013.76 1013.84 1014.07 1013.47 1013.58 1013.64 1014.07 1014.21 1014.02 1013.85 1013.47 1013.26 1013.43 1013.43 1014.11
1017.56 1016.97 1016.40 1015.81 1015.24 1014.49 1013.55 1012.73 1012.60 1012.91 1013.22 1013.11 1012.49 1012.14 1009.25 1007.38 1006.75 1006.53 1006.49 1006.54 1007.09 1007.46 1007.86 1007.84 1008.44 1009.13 1009.69 1010.32 1011.29 1011.77 1012.61 1013.38 1013.15 1013.16 1013.61 1013.87 1014.08 1013.95 1013.99 1013.64 1014.01 1013.76 1013.51 1013.90 1013.90
1017.32 1016.65 1015.97 1015.38 1014.97 1014.55 1013.48 1012.46 1012.76 1012.53 1012.01 1010.79 1010.05 1009.28 1007.57 1006.66 1006.19 1006.35 1006.25 1006.48 1007.00 1007.63 1008.26 1008.42 1009.34 1009.36 1009.02 1009.88 1009.89 1010.66 1011.85 1012.21 1012.75 1012.75 1013.27 1013.71 1014.05 1013.86 1014.34 1014.24 1014.14 1014.00 1013.96 1014.09 1013.99
1017.11 1016.45 1015.72 1014.94 1014.46 1014.37 1014.42 1013.06 1010.92 1010.25 1009.88 1008.67 1008.07 1007.85 1007.15 1006.20 1006.56 1006.47 1006.31 1007.00 1007.32 1007.87 1008.35 1008.95 1008.92 1008.17 1008.33 1008.93 1009.36 1010.04 1010.83 1012.06 1012.76 1012.94 1013.12 1013.71 1013.81 1013.65 1013.86 1014.07 1014.11 1014.21 1014.07 1013.95 1014.07
1016.87 1016.21 1015.52 1014.48 1013.75 1013.86 1013.30 1011.34 1009.22 1009.63 1009.67 1007.43 1006.56 1006.26 1005.92 1006.20 1006.32 1006.21 1006.38 1006.75 1007.30 1007.80 1008.07 1008.41 1007.22 1006.85 1007.70 1008.19 1008.94 1009.63 1010.14 1011.21 1012.11 1012.73 1013.06 1013.90 1014.19 1013.37 1013.09 1013.24 1013.68 1013.81 1013.59 1013.63 1013.77
1016.61 1016.01 1015.49 1014.30 1013.46 1013.53 1011.83 1009.40 1009.34 1009.22 1009.50 1007.42 1005.94 1005.11 1005.15 1005.55 1005.78 1005.50 1005.66 1006.44 1006.88 1007.15 1007.36 1007.45 1006.20 1006.03 1006.57 1006.94 1007.77 1009.04 1008.98 1010.22 1011.43 1012.19 1012.77 1013.58 1014.45 1013.30 1012.71 1013.23 1013.47 1013.61 1013.64 1013.63 1013.56
1016.40 1015.83 1015.45 1015.43 1014.85 1013.37 1010.44 1009.46 1008.88 1008.86 1009.03 1006.13 1005.38 1004.13 1004.73 1005.50 1005.26 1005.25 1005.15 1005.94 1006.45 1006.59 1007.08 1006.47 1005.72 1005.47 1005.56 1005.71 1006.43 1007.38 1008.17 1009.70 1011.09 1011.90 1012.71 1014.32 1014.54 1012.44 1012.25 1012.47 1012.17 1012.43 1012.95 1013.46 1013.69
1016.08 1015.70 1015.42 1015.13 1014.94 1011.79 1010.59 1009.73 1009.32 1009.89 1007.93 1005.96 1004.85 1004.69 1005.14 1005.33 1005.43 1005.18 1005.36 1005.49 1005.87 1006.30 1006.21 1006.01 1005.28 1005.13 1004.96 1005.08 1005.58 1006.41 1008.14 1010.17 1011.53 1012.53 1013.89 1013.69 1013.91 1012.85 1012.50 1011.37 1011.42 1011.99 1012.13 1012.88 1013.40
1015.39 1014.99 1015.34 1014.54 1012.45 1010.87 1010.57 1010.38 1010.68 1009.78 1007.12 1005.85 1005.09 1004.83 1005.04 1005.51 1005.66 1005.46 1005.52 1005.89 1006.50 1006.97 1007.16 1006.21 1005.42 1004.95 1004.62 1005.19 1005.57 1006.45 1008.57 1010.58 1012.14 1013.14 1013.68 1013.42 1013.37 1012.26 1012.32 1010.75 1010.23 1011.21 1011.72 1011.98 1012.47
1014.59 1013.64 1012.97 1012.38 1011.45 1011.31 1011.23 1011.56 1011.04 1008.63 1007.02 1005.41 1004.90 1004.75 1005.25 1005.38 1005.59 1005.53 1005.89 1006.37 1006.47 1007.11 1007.57 1007.27 1005.92 1005.07 1004.67 1005.14 1006.04 1007.04 1008.87 1010.88 1012.58 1014.02 1013.79 1013.10 1012.72 1011.81 1011.74 1010.96 1010.79 1010.41 1010.91 1011.49 1011.95
1013.87 1012.84 1012.49 1010.00 1010.84 1011.61 1011.97 1012.15 1010.46 1008.41 1006.86 1006.08 1004.92 1004.70 1004.82 1004.83 1004.96 1005.58 1005.90 1006.09 1006.15 1006.48 1007.17 1007.35 1006.48 1005.36 1004.83 1004.96 1005.80 1006.99 1008.42 1009.68 1012.09 1013.75 1014.19 1014.02 1012.74 1011.64 1011.05 1011.22 1011.00 1011.14 1011.49 1011.68 1011.56
1014.48 1013.25 1010.97 1008.74 1009.92 1011.06 1011.96 1011.78 1009.82 1007.75 1006.86 1006.19 1005.61 1005.14 1005.41 1004.95 1004.87 1005.21 1005.43 1005.46 1005.84 1005.98 1006.29 1007.72 1007.59 1006.72 1005.47 1005.30 1005.69 1006.36 1007.68 1009.86 1012.22 1014.18 1014.85 1014.43 1013.44 1011.89 1011.56 1011.52 1010.52 1010.92 1011.82 1012.19 1011.89
1014.57 1013.04 1008.89 1008.52 1009.51 1011.17 1011.88 1010.86 1008.90 1007.30 1006.98 1006.51 1005.54 1005.18 1005.26 1005.44 1004.90 1005.11 1005.35 1005.63 1005.45 1006.44 1006.68 1007.77 1008.48 1007.94 1006.94 1006.95 1006.88 1007.02 1008.17 1010.52 1012.62 1014.06 1014.84 1014.72 1013.35 1011.46 1011.90 1011.83 1010.97 1010.84 1011.70 1012.09 1011.64
1015.34 1013.36 1009.11 1008.61 1010.22 1011.03 1011.08 1009.76 1008.48 1007.10 1006.77 1006.58 1005.03 1004.78 1004.88 1005.24 1005.17 1005.27 1005.36 1005.47 1005.60 1005.92 1007.50 1008.28 1009.33 1009.70 1008.86 1007.74 1007.16 1007.31 1008.45 1010.04 1012.39 1014.11 1014.61 1014.34 1013.02 1012.04 1012.01 1011.64 1010.93 1011.42 1012.01 1012.31 1011.82
1016.52 1013.79 1009.10 1009.05 1010.41 1010.92 1010.15 1009.23 1008.26 1007.41 1006.62 1006.25 1005.29 1004.48 1004.54 1005.04 1005.40 1005.52 1005.56 1005.72 1005.72 1006.51 1007.59 1008.58 1010.03 1010.77 1009.67 1008.93 1007.87 1008.36 1008.80 1009.57 1011.11 1012.68 1013.85 1014.00 1012.99 1012.42 1012.20 1011.91 1011.35 1011.46 1011.71 1012.07 1012.07
1017.31 1014.92 1011.72 1010.34 1010.32 1010.50 1010.41 1009.40 1008.24 1006.86 1006.30 1006.02 1005.33 1004.36 1004.47 1004.86 1005.05 1005.57 1005.98 1006.08 1006.28 1007.00 1007.80 1008.52 1010.57 1011.06 1011.30 1010.73 1009.98 1009.47 1008.92 1009.45 1010.35 1012.03 1012.97 1012.76 1012.40 1012.85 1012.64 1012.58 1012.15 1011.73 1011.96 1011.88 1011.82
1017.23 1015.59 1013.71 1012.70 1011.62 1011.29 1010.69 1009.48 1008.26 1007.09 1006.03 1005.28 1004.87 1004.02 1004.45 1004.91 1005.23 1005.66 1005.95 1006.54 1007.11 1007.44 1008.09 1009.16 1010.91 1011.11 1010.97 1010.49 1009.82 1009.61 1009.26 1009.05 1009.64 1010.38 1011.33 1011.32 1012.05 1012.21 1012.68 1012.73 1012.65 1012.21 1011.51 1011.11 1011.19
1017.14 1015.95 1014.48 1013.68 1012.46 1011.70 1010.43 1009.66 1008.81 1007.01 1006.45 1005.13 1004.83 1003.80 1004.06 1004.71 1005.04 1005.68 1005.98 1006.89 1007.27 1008.03 1008.53 1009.75 1010.90 1011.27 1011.35 1010.66 1010.18 1009.78 1009.23 1009.24 1009.40 1009.84 1010.40 1011.00 1012.20 1012.23 1012.49 1012.73 1012.55 1011.77 1011.49 1011.23 1010.61
1016.78 1015.75 1015.34 1013.95 1012.98 1012.16 1011.00 1010.46 1009.34 1008.27 1005.67 1004.96 1004.17 1004.04 1003.82 1004.06 1004.44 1005.02 1005.39 1006.29 1006.97 1008.00 1009.09 1010.15 1011.19 1012.25 1012.28 1011.42 1010.75 1010.37 1009.59 1009.15 1009.87 1009.91 1010.38 1011.23 1011.81 1012.60 1012.93 1012.74 1012.07 1011.60 1011.09 1010.64 1010.73
Wind_Speed
12 12 13 13 13 13 13 13 13 12 12 11 11 11 12 13 15 3 5 9 6 8 3 2 2 3 4 4 5 5 2 4 9 14 5 6 5 4 7 14 13 5 13 14 18
13 13 13 13 14 13 13 13 14 13 12 12 11 11 11 12 3 5 11 7 6 5 2 1 3 1 3 9 4 3 1 2 4 10 9 6 9 7 8 11 5 21 14 17 19
15 14 14 15 15 14 14 14 13 13 12 11 11 11 10 8 2 7 8 14 7 4 3 1 4 3 6 8 6 6 4 4 3 7 14 6 7 7 12 15 20 27 23 21 17
15 16 16 16 16 16 15 14 14 13 12 11 10 10 10 1 2 3 5 8 8 4 3 2 3 3 5 4 7 6 3 6 5 6 5 4 4 8 6 9 20 26 28 23 16
16 16 16 17 17 17 16 14 13 13 11 9 8 8 2 2 7 4 8 7 5 5 4 2 2 1 3 5 7 5 6 7 10 6 6 9 5 7 12 12 21 21 22 22 17
17 17 17 17 17 17 16 14 13 12 9 7 6 6 1 3 2 9 9 6 4 5 4 4 5 5 6 6 5 5 8 6 8 2 1 3 1 2 5 6 8 24 12 12 13
19 18 17 17 17 18 17 16 14 11 7 5 3 3 1 9 3 8 11 7 6 6 4 5 4 4 3 5 5 11 15 9 6 4 3 4 4 3 3 14 7 7 15 22 20
20 20 20 19 18 19 19 17 14 10 7 5 3 2 7 6 6 7 4 3 4 4 5 10 4 2 8 12 5 9 10 11 13 8 0 5 2 3 5 12 5 5 5 14 16
21 21 21 21 20 19 20 21 14 7 5 6 2 1 9 10 1 8 7 6 5 6 6 5 2 1 5 7 4 5 6 12 6 7 3 4 5 8 3 6 3 6 6 12 10
20 21 20 20 20 19 23 14 5 2 4 5 4 4 5 5 3 4 4 3 4 1 5 0 5 3 3 4 5 7 5 6 5 5 5 4 4 6 8 7 4 3 5 2 9
19 19 20 20 18 14 13 3 4 2 2 9 7 4 3 4 2 1 3 2 2 2 3 2 5 6 11 6 6 7 6 6 2 5 1 3 5 11 7 4 5 3 5 5 1
19 19 21 22 19 14 2 1 7 3 10 11 11 8 8 4 1 5 5 3 2 5 1 5 6 13 7 4 10 10 9 4 2 3 2 3 9 8 4 5 6 5 6 7 6
19 20 21 25 26 3 3 8 7 7 3 9 6 6 7 8 6 7 9 3 5 3 5 7 12 8 6 6 7 3 8 5 6 5 1 4 8 7 4 4 4 7 6 7 9
19 19 19 29 3 5 6 6 7 4 5 8 4 6 3 6 4 8 9 7 1 6 6 7 13 12 6 5 14 7 11 16 15 5 3 12 5 5 5 6 8 7 10 9 8
20 18 15 7 5 3 7 12 14 6 4 4 4 3 3 7 5 4 5 3 4 6 3 8 6 4 4 3 7 11 14 19 16 5 4 9 3 7 5 7 12 13 12 10 7
21 17 15 3 2 10 11 13 5 7 5 4 7 8 5 3 2 4 2 2 3 3 2 7 1 2 5 2 2 2 7 6 5 3 3 5 9 7 2 12 0 11 14 11 8
24 18 8 3 7 2 6 5 7 3 6 5 7 5 7 5 5 6 5 3 4 3 4 7 7 3 1 5 8 8 8 5 5 5 5 5 2 6 8 12 11 10 14 16 15
26 26 6 7 4 3 4 7 1 5 5 7 5 5 7 7 6 7 4 3 2 3 1 1 9 8 4 7 7 2 8 7 6 4 5 5 3 4 4 12 13 3 12 15 15
25 2 3 7 10 2 7 3 7 6 2 8 6 1 3 4 7 5 9 8 7 7 6 5 9 6 4 4 9 2 0 6 8 2 3 5 5 3 7 6 9 11 7 11 14
5 5 6 5 10 6 6 6 6 4 6 4 2 3 4 5 4 4 1 2 4 3 5 1 3 1 6 2 3 6 4 3 5 4 2 4 5 6 3 6 3 6 5 7 5
3 5 5 10 5 7 4 8 7 6 7 6 4 1 1 2 4 4 4 3 5 5 10 2 4 9 5 5 4 4 2 8 7 4 6 1 7 3 5 4 8 7 4 3 10
4 4 2 4 4 2 3 5 4 9 11 7 5 3 2 2 4 5 4 4 0 3 4 3 5 2 7 8 5 4 4 5 6 4 1 3 6 6 6 8 6 4 5 8 9
4 5 6 7 3 3 6 6 8 10 14 6 6 4 3 4 4 3 3 2 5 5 5 0 2 4 11 10 10 5 6 5 7 4 5 6 5 5 4 5 6 9 5 5 6
3 5 6 5 1 3 3 7 8 5 12 8 15 4 3 2 3 2 3 2 4 5 7 9 2 8 7 7 5 6 8 3 5 4 5 7 5 7 7 5 4 5 6 3 3
1 5 2 5 5 6 1 4 12 12 6 3 8 6 5 4 2 0 5 5 5 6 4 6 4 4 6 5 4 2 7 10 3 5 7 9 8 5 7 6 6 5 4 4 3
1 2 5 4 5 5 2 4 11 14 6 14 6 7 7 7 8 4 5 4 4 3 3 3 2 1 5 7 8 4 8 6 9 6 5 9 2 4 3 5 7 11 8 6 7
3 4 3 5 4 3 1 7 14 12 10 13 8 6 6 8 8 9 8 5 10 9 6 4 4 4 2 4 6 6 6 3 4 2 4 3 3 4 2 7 6 8 7 7 6
Wind_Direction
349 346 341 337 333 331 328 325 323 323 326 331 337 334 330 327 316 139 242 216 193 206 212 287 212 202 179 127 160 118 76 209 165 168 212 249 264 22 68 132 148 141 141 149 156
348 345 341 335 332 330 328 326 325 326 328 329 332 331 330 336 330 268 240 212 206 176 246 242 224 234 210 168 167 103 292 272 146 148 174 287 274 129 128 182 118 114 122 142 151
346 343 339 333 330 327 326 326 325 327 326 327 326 325 325 327 342 246 225 207 183 202 253 309 270 185 206 149 159 71 282 90 70 140 133 205 348 299 162 198 150 144 146 148 166
346 341 337 333 330 327 327 327 323 324 324 321 319 319 317 257 127 219 154 155 162 190 250 274 331 323 332 75 139 116 273 87 141 129 100 28 301 34 163 156 150 146 156 155 155
345 339 336 332 328 327 328 327 322 320 317 315 313 320 330 5 252 162 144 143 151 164 209 218 348 234 313 137 110 105 166 104 142 160 149 162 18 54 54 117 148 147 154 156 165
342 336 334 332 328 326 326 322 318 312 309 305 305 315 301 326 165 149 154 147 192 182 202 147 236 252 270 29 49 121 118 108 118 126 26 59 53 359 354 207 159 153 158 153 133
339 335 333 332 329 325 320 315 312 304 291 284 270 267 311 238 167 173 157 187 191 181 193 213 227 235 105 85 5 97 64 78 48 330 23 347 158 113 291 153 190 182 136 130 139
341 339 336 332 329 323 316 309 302 287 264 238 220 248 254 259 220 177 200 268 265 239 198 256 252 185 88 136 79 95 61 56 277 300 166 74 242 177 347 140 201 218 143 131 145
342 339 335 332 330 322 316 310 296 240 204 150 145 234 280 308 182 253 165 217 213 238 239 290 39 98 105 138 124 213 155 199 273 210 150 135 259 142 149 105 82 102 108 134 122
340 337 333 329 327 323 318 300 140 185 192 196 258 322 278 225 201 225 239 181 177 192 352 52 49 53 12 86 201 194 139 185 210 184 205 156 244 251 172 131 144 50 103 108 134
329 327 325 323 324 326 345 22 18 17 228 201 204 236 220 232 85 217 239 10 28 115 172 274 81 217 229 177 222 151 120 144 64 173 95 205 262 245 133 184 162 161 112 139 133
331 328 324 321 320 319 273 238 214 143 306 218 238 240 264 156 129 282 118 154 177 217 95 6 229 241 234 153 139 144 133 117 93 255 42 42 281 263 219 177 173 197 178 176 132
330 328 326 321 318 114 189 234 264 38 290 296 206 188 204 131 217 232 139 175 218 246 191 175 242 216 199 201 144 128 156 166 139 148 46 48 297 278 215 216 199 204 209 178 159
328 328 332 327 355 327 268 294 313 179 45 277 187 231 165 133 242 208 187 165 279 234 236 210 260 245 197 141 136 171 210 149 157 139 196 149 264 261 240 224 192 172 216 218 165
324 326 329 324 294 291 266 327 328 60 23 210 214 176 197 149 164 241 189 127 235 263 82 260 348 71 84 234 157 212 163 168 182 158 98 189 354 264 161 244 232 200 209 201 205
317 318 330 94 225 245 311 306 45 46 260 216 162 188 156 204 242 177 194 171 226 292 291 233 268 202 210 265 245 112 105 141 163 97 93 230 171 280 201 252 266 196 201 194 196
313 306 298 270 232 328 315 30 37 153 299 188 197 178 186 219 200 172 193 218 170 69 329 333 279 271 121 34 352 61 61 1 357 11 223 258 158 226 348 297 236 191 192 192 196
315 310 220 210 243 310 36 49 237 259 258 271 174 171 177 156 237 205 149 249 203 115 224 110 324 146 226 169 181 132 141 157 190 194 253 303 333 321 341 15 32 23 180 178 192
316 317 251 247 191 92 77 90 216 223 315 357 342 80 333 156 162 158 198 202 200 165 129 38 333 332 167 176 125 254 292 186 107 348 77 315 312 287 16 19 4 48 41 188 194
322 329 261 144 143 88 83 221 242 223 352 20 288 71 350 256 136 156 196 181 131 98 117 352 0 236 305 130 234 145 179 41 19 120 210 297 278 235 6 313 313 24 90 338 222
341 341 267 132 93 54 169 226 276 282 342 24 295 19 333 26 231 187 180 2 89 90 81 116 89 299 24 39 263 333 96 56 108 107 148 195 268 226 157 257 308 9 34 354 240
351 333 304 101 86 176 201 214 294 291 306 291 247 169 199 357 17 43 86 100 68 108 79 335 123 308 254 279 328 119 138 116 120 231 127 172 269 119 155 235 279 19 23 28 2
334 265 299 112 164 254 277 265 244 271 269 276 304 185 186 158 77 121 108 158 103 80 136 275 9 22 350 352 -0 15 354 79 105 93 185 147 258 181 147 258 246 145 92 63 32
346 339 318 23 339 189 331 277 267 253 262 252 259 227 139 119 124 159 120 165 102 117 148 93 105 146 177 220 217 328 332 139 122 124 186 217 173 187 206 214 342 23 22 40 17
163 263 195 322 327 329 273 279 294 282 261 308 266 150 178 155 64 105 176 100 18 183 115 107 168 172 209 239 20 321 332 330 335 185 156 238 189 171 167 182 208 212 288 32 347
274 20 340 269 287 330 305 324 322 284 214 281 229 204 159 162 166 181 114 138 179 230 99 34 237 117 353 1 24 342 318 356 13 10 57 110 93 237 202 184 204 217 224 237 199
308 321 121 278 322 358 240 346 318 341 302 239 230 226 170 200 160 171 148 156 165 155 174 126 115 80 286 0 22 3 307 306 111 347 199 153 183 138 248 238 214 261 292 282 18